This is the latest recevied weather packets stored in our database for station/object KD2VWU. If no packets are shown the sender has not sent any weather packets the latest 10 day(s).
| Time | Temp. | Humidity | Pressure | Rain* | Wind** | Luminosity | Snow |
|---|---|---|---|---|---|---|---|
| 1777791956 | 5.56° C | 70% | 1007.4 hPa | 0 mm | - | - | - |
| 1777791655 | 5.56° C | 69% | 1007.6 hPa | 0 mm | - | - | - |
| 1777791351 | 5.56° C | 68% | 1007.5 hPa | 0 mm | - | - | - |
| 1777791049 | 5.56° C | 68% | 1007.6 hPa | 0 mm | - | - | - |
| 1777790746 | 5.56° C | 68% | 1007.5 hPa | 0 mm | - | - | - |
| 1777790443 | 5.56° C | 68% | 1007.5 hPa | 0 mm | - | - | - |
| 1777790140 | 6.11° C | 67% | 1007.6 hPa | 0 mm | - | - | - |
| 1777789839 | 6.11° C | 66% | 1007.4 hPa | 0 mm | - | - | - |
| 1777789537 | 6.11° C | 67% | 1007.5 hPa | 0 mm | - | - | - |
| 1777789235 | 6.11° C | 66% | 1007.6 hPa | 0 mm | - | - | - |
| 1777788931 | 6.67° C | 67% | 1007.6 hPa | 0 mm | - | - | - |
| 1777788628 | 6.67° C | 64% | 1007.5 hPa | 0 mm | - | - | - |
| 1777788327 | 6.67° C | 66% | 1007.8 hPa | 0 mm | - | - | - |
| 1777788024 | 6.67° C | 65% | 1007.6 hPa | 0 mm | - | - | - |
| 1777787719 | 6.67° C | 63% | 1007.8 hPa | 0 mm | - | - | - |
| 1777787415 | 6.67° C | 63% | 1007.8 hPa | 0 mm | - | - | - |
| 1777787111 | 6.67° C | 64% | 1008 hPa | 0 mm | - | - | - |
| 1777786809 | 6.67° C | 64% | 1008 hPa | 0 mm | - | - | - |
| 1777786506 | 6.67° C | 62% | 1007.8 hPa | 0 mm | - | - | - |
| 1777786204 | 6.67° C | 63% | 1008.1 hPa | 0 mm | - | - | - |
| 1777785900 | 7.22° C | 62% | 1007.9 hPa | 0 mm | - | - | - |
| 1777785596 | 7.22° C | 60% | 1008.2 hPa | 0 mm | - | - | - |
| 1777785292 | 7.22° C | 60% | 1008.1 hPa | 0 mm | - | - | - |
| 1777784990 | 7.22° C | 61% | 1008.3 hPa | 0 mm | - | - | - |
| 1777784685 | 7.22° C | 60% | 1008.3 hPa | 0 mm | - | - | - |
* Rain latest hour (hover to see other rain measurements)
** Current wind speed in m/s (hover to see current wind gust speed)